User: anonymous   Login
Location: Unspecified
(0.0000°N, 0.0000°E)
Time: 18:40:31
(UTC+00:00)
Language:

METEOR-M - Orbit

View from above orbital plane
View from above orbital plane
View from above satellite
View from above satellite

Ground track
Ground track

The orbit data is extracted from the following two-line orbital elements,

1 35865U 09049A   19114.44110827  .00000005  00000-0  20769-4 0  9995
2 35865  98.4120 115.1241 0002209   7.4596 352.6615 14.22192049498229
Epoch (UTC): 24 April 2019 10:35:11
Eccentricity: 0.0002209
inclination: 98.4120°
perigee height: 816 km
apogee height: 819 km
right ascension of ascending node: 115.1241°
argument of perigee: 7.4596°
revolutions per day: 14.22192049
mean anomaly at epoch: 352.6615°
orbit number at epoch: 49822

The dashed part of the orbit path shows where the satellite is in the earth's shadow,  

DLR